Location: Chippewa Lake
(41.0698°N, 81.9010°W)
Time: 22:04:32
(UTC+00:00)

GP-B - Pass Details

Date: 09 May 2021
Orbit: 631 x 635 km, 89.8° (Epoch: 17 June)

Event Time Altitude Azimuth Distance (km) Brightness Sun altitude
Rises 08:11:53 0° 2° (N) 2,938 7.3 -19.7°
Reaches altitude 10° 08:14:06 10° 3° (N) 2,025 6.4 -19.5°
Maximum altitude 08:18:34 83° 92° (E) 643 3.1 -18.9°
Enters shadow 08:20:53 28° 178° (S) 1,183 4.1 -18.6°
